Time,TemperatureF,DewpointF,PressureIn,WindDirection,WindDirectionDegrees,WindSpeedMPH,WindSpeedGustMPH,Humidity,HourlyPrecipIn,Conditions,Clouds,dailyrainin,SoftwareType,DateUTC
2013-01-20 00:04:00,38.0,28.0,30.16,SSE,147,0.0,3.0,68,0.00,,,0.31,,2013-01-20 05:04:00,
2013-01-20 00:12:00,38.0,28.0,30.16,SSE,147,0.0,3.0,68,0.00,,,0.31,,2013-01-20 05:12:00,
2013-01-20 00:22:00,38.0,28.0,30.16,SSW,193,1.0,5.0,68,0.00,,,0.31,,2013-01-20 05:22:00,
2013-01-20 00:33:00,38.0,27.0,30.16,SSW,193,0.0,3.0,65,0.00,,,0.31,,2013-01-20 05:33:00,
2013-01-20 00:42:00,38.0,27.0,30.16,SSW,193,0.0,3.0,65,0.00,,,0.31,,2013-01-20 05:42:00,
2013-01-20 00:53:00,39.0,27.0,30.16,SW,218,0.0,3.0,63,0.00,,,0.31,,2013-01-20 05:53:00,
2013-01-20 01:02:00,39.0,27.0,30.16,SW,218,0.0,3.0,61,0.00,,,0.31,,2013-01-20 06:02:00,
2013-01-20 01:12:00,39.0,27.0,30.16,SW,218,0.0,3.0,61,0.00,,,0.31,,2013-01-20 06:12:00,
2013-01-20 01:22:00,40.0,26.0,30.16,WSW,243,0.0,3.0,58,0.00,,,0.31,,2013-01-20 06:22:00,
2013-01-20 01:33:00,40.0,26.0,30.15,WSW,254,0.0,3.0,57,0.00,,,0.31,,2013-01-20 06:33:00,
2013-01-20 01:43:00,40.0,26.0,30.15,WSW,254,0.0,3.0,57,0.00,,,0.31,,2013-01-20 06:43:00,
2013-01-20 01:52:00,40.0,26.0,30.16,West,265,0.0,5.0,56,0.00,,,0.31,,2013-01-20 06:52:00,
2013-01-20 02:02:00,40.0,26.0,30.16,West,265,1.0,1.0,57,0.00,,,0.31,,2013-01-20 07:02:00,
2013-01-20 02:12:00,40.0,26.0,30.16,West,265,1.0,1.0,57,0.00,,,0.31,,2013-01-20 07:12:00,
2013-01-20 02:22:00,39.0,25.0,30.16,West,265,1.0,3.0,58,0.00,,,0.31,,2013-01-20 07:22:00,
2013-01-20 02:32:00,39.0,25.0,30.16,West,268,2.0,4.0,57,0.00,,,0.31,,2013-01-20 07:32:00,
2013-01-20 02:42:00,39.0,25.0,30.16,West,268,2.0,4.0,57,0.00,,,0.31,,2013-01-20 07:42:00,
2013-01-20 02:52:00,39.0,24.0,30.16,West,265,2.0,4.0,55,0.00,,,0.31,,2013-01-20 07:52:00,
2013-01-20 03:02:00,41.0,25.0,30.16,WSW,254,3.0,9.0,53,0.00,,,0.31,,2013-01-20 08:02:00,
2013-01-20 03:12:00,41.0,25.0,30.16,WSW,254,3.0,9.0,53,0.00,,,0.31,,2013-01-20 08:12:00,
2013-01-20 03:22:00,41.0,24.0,30.16,SSW,200,2.0,7.0,51,0.00,,,0.31,,2013-01-20 08:22:00,
2013-01-20 03:32:00,42.0,25.0,30.15,WSW,252,1.0,8.0,51,0.00,,,0.31,,2013-01-20 08:32:00,
2013-01-20 03:42:00,42.0,25.0,30.15,WSW,252,1.0,8.0,51,0.00,,,0.31,,2013-01-20 08:42:00,
2013-01-20 03:53:00,43.0,25.0,30.15,WSW,237,2.0,11.0,48,0.00,,,0.31,,2013-01-20 08:53:00,
2013-01-20 04:02:00,44.0,25.0,30.15,WSW,237,5.0,13.0,46,0.00,,,0.31,,2013-01-20 09:02:00,
2013-01-20 04:12:00,44.0,25.0,30.15,WSW,237,5.0,13.0,46,0.00,,,0.31,,2013-01-20 09:12:00,
2013-01-20 04:22:00,45.0,25.0,30.15,WSW,257,5.0,9.0,45,0.00,,,0.31,,2013-01-20 09:22:00,
2013-01-20 04:33:00,45.0,24.0,30.15,West,259,5.0,16.0,43,0.01,,,0.32,,2013-01-20 09:33:00,
2013-01-20 04:42:00,45.0,24.0,30.15,West,259,5.0,16.0,43,0.01,,,0.32,,2013-01-20 09:42:00,
2013-01-20 04:53:00,45.0,25.0,30.15,West,274,5.0,13.0,45,0.01,,,0.32,,2013-01-20 09:53:00,
2013-01-20 05:02:00,45.0,25.0,30.15,SW,227,5.0,18.0,45,0.01,,,0.32,,2013-01-20 10:02:00,
2013-01-20 05:12:00,45.0,25.0,30.15,SW,227,5.0,18.0,45,0.01,,,0.32,,2013-01-20 10:12:00,
2013-01-20 05:22:00,45.0,25.0,30.15,SW,227,5.0,11.0,46,0.01,,,0.32,,2013-01-20 10:22:00,
2013-01-20 05:32:00,45.0,25.0,30.15,SW,232,5.0,12.0,46,0.00,,,0.32,,2013-01-20 10:32:00,
2013-01-20 05:42:00,45.0,25.0,30.15,SW,232,5.0,12.0,46,0.00,,,0.32,,2013-01-20 10:42:00,
2013-01-20 05:52:00,45.0,25.0,30.15,West,259,5.0,10.0,46,0.00,,,0.32,,2013-01-20 10:52:00,
2013-01-20 06:02:00,45.0,26.0,30.15,SW,236,4.0,13.0,47,0.00,,,0.32,,2013-01-20 11:02:00,
2013-01-20 06:12:00,46.0,27.0,30.15,West,264,3.0,14.0,47,0.00,,,0.32,,2013-01-20 11:12:00,
2013-01-20 06:22:00,46.0,27.0,30.15,West,264,3.0,14.0,47,0.00,,,0.32,,2013-01-20 11:22:00,
2013-01-20 06:33:00,45.0,27.0,30.15,West,275,5.0,13.0,48,0.00,,,0.32,,2013-01-20 11:33:00,
2013-01-20 06:43:00,45.0,27.0,30.15,West,275,5.0,13.0,48,0.00,,,0.32,,2013-01-20 11:43:00,
2013-01-20 06:53:00,45.0,27.0,30.15,SSW,213,2.0,15.0,49,0.00,,,0.32,,2013-01-20 11:53:00,
2013-01-20 07:03:00,45.0,27.0,30.15,WSW,244,3.0,13.0,50,0.01,,,0.33,,2013-01-20 12:03:00,
2013-01-20 07:12:00,45.0,27.0,30.15,WSW,244,3.0,13.0,50,0.01,,,0.33,,2013-01-20 12:12:00,
2013-01-20 07:23:00,45.0,27.0,30.16,WSW,246,3.0,12.0,50,0.01,,,0.33,,2013-01-20 12:23:00,
2013-01-20 07:33:00,45.0,27.0,30.16,SW,236,5.0,11.0,50,0.01,,,0.33,,2013-01-20 12:33:00,
2013-01-20 07:43:00,45.0,27.0,30.16,SW,236,5.0,11.0,50,0.01,,,0.33,,2013-01-20 12:43:00,
2013-01-20 07:53:00,45.0,29.0,30.16,WSW,244,4.0,16.0,54,0.01,,,0.33,,2013-01-20 12:53:00,
2013-01-20 08:03:00,45.0,28.0,30.17,WSW,245,5.0,11.0,52,0.00,,,0.33,,2013-01-20 13:03:00,
2013-01-20 08:12:00,45.0,28.0,30.17,WSW,245,5.0,11.0,52,0.00,,,0.33,,2013-01-20 13:12:00,
2013-01-20 08:23:00,45.0,28.0,30.17,WSW,257,2.0,6.0,52,0.00,,,0.33,,2013-01-20 13:23:00,
2013-01-20 08:33:00,44.0,28.0,30.17,WSW,257,3.0,6.0,54,0.00,,,0.33,,2013-01-20 13:33:00,
2013-01-20 08:43:00,44.0,28.0,30.17,WSW,257,3.0,6.0,54,0.00,,,0.33,,2013-01-20 13:43:00,
2013-01-20 08:52:00,44.0,29.0,30.18,West,269,3.0,7.0,55,0.00,,,0.33,,2013-01-20 13:52:00,
2013-01-20 09:02:00,44.0,29.0,30.18,SSW,192,1.0,12.0,56,0.00,,,0.33,,2013-01-20 14:02:00,
2013-01-20 09:12:00,44.0,29.0,30.18,SSW,192,1.0,12.0,56,0.00,,,0.33,,2013-01-20 14:12:00,
2013-01-20 09:23:00,45.0,29.0,30.18,SW,225,4.0,12.0,54,0.00,,,0.33,,2013-01-20 14:23:00,
2013-01-20 09:33:00,45.0,29.0,30.18,SW,225,6.0,13.0,53,0.00,,,0.33,,2013-01-20 14:33:00,
2013-01-20 09:43:00,45.0,29.0,30.18,SW,225,6.0,13.0,53,0.00,,,0.33,,2013-01-20 14:43:00,
2013-01-20 09:53:00,46.0,31.0,30.18,West,259,4.0,11.0,55,0.00,,,0.33,,2013-01-20 14:53:00,
2013-01-20 10:03:00,47.0,30.0,30.18,West,267,4.0,10.0,52,0.00,,,0.33,,2013-01-20 15:03:00,
2013-01-20 10:12:00,47.0,30.0,30.18,West,267,4.0,10.0,52,0.00,,,0.33,,2013-01-20 15:12:00,
2013-01-20 10:23:00,47.0,31.0,30.19,SW,215,3.0,8.0,54,0.00,,,0.32,,2013-01-20 15:23:00,
2013-01-20 10:33:00,47.0,31.0,30.19,West,274,2.0,11.0,53,0.00,,,0.32,,2013-01-20 15:33:00,
2013-01-20 10:42:00,47.0,31.0,30.19,West,274,2.0,11.0,53,0.00,,,0.32,,2013-01-20 15:42:00,
2013-01-20 10:52:00,48.0,31.0,30.19,WSW,243,3.0,11.0,52,0.00,,,0.32,,2013-01-20 15:52:00,
2013-01-20 11:03:00,48.0,32.0,30.19,NW,325,5.0,10.0,53,0.00,,,0.32,,2013-01-20 16:03:00,
2013-01-20 11:12:00,48.0,32.0,30.19,NW,325,5.0,10.0,53,0.00,,,0.32,,2013-01-20 16:12:00,
2013-01-20 11:23:00,48.0,32.0,30.19,WNW,301,4.0,10.0,53,0.00,,,0.28,,2013-01-20 16:23:00,
2013-01-20 11:33:00,49.0,33.0,30.19,NW,304,3.0,8.0,54,0.00,,,0.28,,2013-01-20 16:33:00,
2013-01-20 11:43:00,49.0,33.0,30.19,NW,304,3.0,8.0,54,0.00,,,0.28,,2013-01-20 16:43:00,
2013-01-20 11:52:00,49.0,33.0,30.19,WSW,251,2.0,11.0,53,0.00,,,0.28,,2013-01-20 16:52:00,
2013-01-20 12:03:00,50.0,34.0,30.19,WNW,296,5.0,10.0,53,0.00,,,0.28,,2013-01-20 17:03:00,
2013-01-20 12:13:00,50.0,34.0,30.19,WNW,296,5.0,10.0,53,0.00,,,0.28,,2013-01-20 17:13:00,
2013-01-20 12:22:00,49.0,32.0,30.18,West,277,5.0,11.0,52,0.00,,,0.22,,2013-01-20 17:22:00,
2013-01-20 12:33:00,50.0,33.0,30.17,WNW,296,3.0,10.0,52,0.00,,,0.22,,2013-01-20 17:33:00,
2013-01-20 12:42:00,50.0,33.0,30.17,WNW,296,3.0,10.0,52,0.00,,,0.22,,2013-01-20 17:42:00,
2013-01-20 12:53:00,51.0,34.0,30.15,West,269,3.0,12.0,52,0.00,,,0.22,,2013-01-20 17:53:00,
2013-01-20 13:03:00,51.0,33.0,30.14,West,276,3.0,8.0,49,0.00,,,0.22,,2013-01-20 18:03:00,
2013-01-20 13:13:00,52.0,34.0,30.14,NW,304,3.0,10.0,50,0.00,,,0.18,,2013-01-20 18:13:00,
2013-01-20 13:23:00,52.0,34.0,30.14,NW,304,3.0,10.0,50,0.00,,,0.18,,2013-01-20 18:23:00,
2013-01-20 13:33:00,53.0,34.0,30.14,WSW,240,2.0,10.0,49,0.00,,,0.18,,2013-01-20 18:33:00,
2013-01-20 13:43:00,53.0,34.0,30.14,WSW,240,2.0,10.0,49,0.00,,,0.18,,2013-01-20 18:43:00,
2013-01-20 13:53:00,52.0,32.0,30.13,West,268,3.0,9.0,47,0.00,,,0.18,,2013-01-20 18:53:00,
2013-01-20 14:02:00,53.0,33.0,30.12,WSW,255,4.0,9.0,46,0.00,,,0.18,,2013-01-20 19:02:00,
2013-01-20 14:12:00,53.0,33.0,30.12,WSW,255,4.0,9.0,46,0.00,,,0.18,,2013-01-20 19:12:00,
2013-01-20 14:22:00,53.0,33.0,30.11,WNW,291,4.0,10.0,46,0.00,,,0.13,,2013-01-20 19:22:00,
2013-01-20 14:33:00,53.0,33.0,30.11,NW,309,3.0,9.0,47,0.00,,,0.13,,2013-01-20 19:33:00,
2013-01-20 14:43:00,53.0,33.0,30.11,NW,309,3.0,9.0,47,0.00,,,0.13,,2013-01-20 19:43:00,
2013-01-20 14:53:00,53.0,33.0,30.11,WNW,299,4.0,8.0,46,0.00,,,0.13,,2013-01-20 19:53:00,
2013-01-20 15:03:00,54.0,34.0,30.11,West,271,5.0,8.0,47,0.00,,,0.13,,2013-01-20 20:03:00,
2013-01-20 15:12:00,54.0,34.0,30.11,West,271,5.0,8.0,47,0.00,,,0.13,,2013-01-20 20:12:00,
2013-01-20 15:23:00,54.0,33.0,30.11,NW,314,5.0,9.0,45,0.00,,,0.09,,2013-01-20 20:23:00,
2013-01-20 15:33:00,53.0,30.0,30.11,West,261,8.0,14.0,41,0.00,,,0.09,,2013-01-20 20:33:00,
2013-01-20 15:42:00,53.0,30.0,30.11,West,261,8.0,14.0,41,0.00,,,0.09,,2013-01-20 20:42:00,
2013-01-20 15:53:00,53.0,31.0,30.11,WSW,250,2.0,10.0,43,0.00,,,0.09,,2013-01-20 20:53:00,
2013-01-20 16:03:00,53.0,31.0,30.11,West,260,1.0,10.0,43,0.00,,,0.09,,2013-01-20 21:03:00,
2013-01-20 16:13:00,53.0,31.0,30.11,West,260,1.0,10.0,43,0.00,,,0.09,,2013-01-20 21:13:00,
2013-01-20 16:23:00,53.0,32.0,30.12,WSW,242,3.0,10.0,44,0.00,,,0.05,,2013-01-20 21:23:00,
2013-01-20 16:33:00,52.0,31.0,30.12,West,261,3.0,10.0,44,0.00,,,0.05,,2013-01-20 21:33:00,
2013-01-20 16:43:00,52.0,31.0,30.12,West,261,3.0,10.0,44,0.00,,,0.05,,2013-01-20 21:43:00,
2013-01-20 16:53:00,52.0,30.0,30.12,West,280,4.0,9.0,42,0.00,,,0.05,,2013-01-20 21:53:00,
2013-01-20 17:03:00,51.0,30.0,30.12,South,186,4.0,9.0,44,0.00,,,0.05,,2013-01-20 22:03:00,
2013-01-20 17:13:00,51.0,30.0,30.12,South,186,4.0,9.0,44,0.00,,,0.05,,2013-01-20 22:13:00,
2013-01-20 17:23:00,51.0,30.0,30.13,WSW,238,1.0,8.0,45,0.00,,,0.03,,2013-01-20 22:23:00,
2013-01-20 17:33:00,49.0,31.0,30.13,West,265,1.0,5.0,49,0.00,,,0.03,,2013-01-20 22:33:00,
2013-01-20 17:43:00,49.0,31.0,30.13,West,265,1.0,5.0,49,0.00,,,0.03,,2013-01-20 22:43:00,
2013-01-20 17:53:00,48.0,30.0,30.13,West,264,0.0,3.0,49,0.00,,,0.03,,2013-01-20 22:53:00,
2013-01-20 18:03:00,47.0,29.0,30.13,West,264,0.0,1.0,50,0.00,,,0.03,,2013-01-20 23:03:00,
2013-01-20 18:13:00,47.0,29.0,30.13,West,264,0.0,1.0,50,0.00,,,0.03,,2013-01-20 23:13:00,
2013-01-20 18:23:00,47.0,30.0,30.13,West,264,0.0,1.0,51,0.00,,,0.02,,2013-01-20 23:23:00,
2013-01-20 18:33:00,46.0,29.0,30.13,West,264,1.0,2.0,51,0.00,,,0.02,,2013-01-20 23:33:00,
2013-01-20 18:43:00,46.0,29.0,30.13,West,264,1.0,2.0,51,0.00,,,0.02,,2013-01-20 23:43:00,
2013-01-20 18:53:00,46.0,29.0,30.13,West,264,0.0,2.0,52,0.00,,,0.02,,2013-01-20 23:53:00,
2013-01-20 19:03:00,46.0,29.0,30.14,West,264,0.0,1.0,52,0.00,,,0.02,,2013-01-21 00:03:00,
2013-01-20 19:13:00,46.0,29.0,30.14,West,264,0.0,1.0,52,0.00,,,0.02,,2013-01-21 00:13:00,
2013-01-20 19:23:00,46.0,29.0,30.13,West,264,0.0,0.0,52,0.00,,,0.02,,2013-01-21 00:23:00,
2013-01-20 19:33:00,46.0,30.0,30.13,West,264,0.0,1.0,53,0.00,,,0.02,,2013-01-21 00:33:00,
2013-01-20 19:43:00,46.0,30.0,30.13,West,264,0.0,1.0,53,0.00,,,0.02,,2013-01-21 00:43:00,
2013-01-20 19:54:00,46.0,29.0,30.13,West,264,0.0,1.0,52,0.00,,,0.02,,2013-01-21 00:54:00,
2013-01-20 20:03:00,47.0,30.0,30.13,WSW,250,0.0,2.0,52,0.00,,,0.02,,2013-01-21 01:03:00,
2013-01-20 20:13:00,47.0,30.0,30.13,WSW,250,0.0,2.0,52,0.00,,,0.02,,2013-01-21 01:13:00,
2013-01-20 20:23:00,47.0,30.0,30.13,South,188,1.0,5.0,52,0.00,,,0.02,,2013-01-21 01:23:00,
2013-01-20 20:33:00,47.0,30.0,30.13,SSW,199,1.0,5.0,51,0.00,,,0.02,,2013-01-21 01:33:00,
2013-01-20 20:43:00,47.0,30.0,30.13,SSW,199,1.0,5.0,51,0.00,,,0.02,,2013-01-21 01:43:00,
2013-01-20 20:53:00,47.0,30.0,30.12,SSW,195,1.0,5.0,51,0.00,,,0.02,,2013-01-21 01:53:00,
2013-01-20 21:03:00,47.0,30.0,30.12,South,175,1.0,5.0,51,0.00,,,0.02,,2013-01-21 02:03:00,
2013-01-20 21:12:00,47.0,30.0,30.12,South,175,1.0,5.0,51,0.00,,,0.02,,2013-01-21 02:12:00,
2013-01-20 21:23:00,46.0,30.0,30.12,South,175,0.0,2.0,53,0.00,,,0.02,,2013-01-21 02:23:00,
2013-01-20 21:33:00,41.0,30.0,30.12,NW,309,0.0,1.0,64,0.00,,,0.02,,2013-01-21 02:33:00,
2013-01-20 21:43:00,41.0,30.0,30.12,NW,309,0.0,1.0,64,0.00,,,0.02,,2013-01-21 02:43:00,
2013-01-20 21:53:00,41.0,31.0,30.12,NW,309,0.0,2.0,66,0.00,,,0.02,,2013-01-21 02:53:00,
2013-01-20 22:03:00,41.0,30.0,30.11,SSE,151,2.0,4.0,65,0.00,,,0.02,,2013-01-21 03:03:00,
2013-01-20 22:13:00,41.0,30.0,30.11,SSE,151,2.0,4.0,65,0.00,,,0.02,,2013-01-21 03:13:00,
2013-01-20 22:23:00,41.0,29.0,30.11,SSE,151,0.0,1.0,63,0.00,,,0.02,,2013-01-21 03:23:00,
2013-01-20 22:33:00,42.0,30.0,30.11,SSE,151,0.0,0.0,61,0.00,,,0.02,,2013-01-21 03:33:00,
2013-01-20 22:43:00,42.0,30.0,30.11,SSE,151,0.0,0.0,61,0.00,,,0.02,,2013-01-21 03:43:00,
2013-01-20 22:54:00,43.0,30.0,30.11,SSE,151,0.0,0.0,61,0.00,,,0.02,,2013-01-21 03:54:00,
2013-01-20 23:03:00,42.0,30.0,30.12,SSE,151,0.0,0.0,62,0.00,,,0.02,,2013-01-21 04:03:00,
2013-01-20 23:13:00,42.0,30.0,30.12,SSE,151,0.0,0.0,62,0.00,,,0.02,,2013-01-21 04:13:00,
2013-01-20 23:23:00,42.0,30.0,30.12,SSE,151,0.0,0.0,62,0.00,,,0.02,,2013-01-21 04:23:00,
2013-01-20 23:33:00,42.0,27.0,30.12,SSE,151,0.0,1.0,56,0.00,,,0.02,,2013-01-21 04:33:00,
2013-01-20 23:43:00,42.0,27.0,30.12,SSE,151,0.0,1.0,56,0.00,,,0.02,,2013-01-21 04:43:00,
2013-01-20 23:53:00,42.0,26.0,30.12,SSE,151,0.0,1.0,52,0.00,,,0.02,,2013-01-21 04:53:00,